Time,TemperatureF,DewpointF,PressureIn,WindDirection,WindDirectionDegrees,WindSpeedMPH,WindSpeedGustMPH,Humidity,HourlyPrecipIn,Conditions,Clouds,dailyrainin,SoftwareType,DateUTC
2013-02-14 00:11:00,40.5,37.8,30.15,NNW,337,0.0,-999.0,90,-99.99,,,0.00,Acu-Link.com,2013-02-14 08:11:00,
2013-02-14 00:27:00,40.1,37.4,30.14,NW,315,0.0,-999.0,90,-99.99,,,0.00,Acu-Link.com,2013-02-14 08:27:00,
2013-02-14 00:42:00,39.9,37.2,30.15,West,270,1.7,-999.0,90,-99.99,,,0.00,Acu-Link.com,2013-02-14 08:42:00,
2013-02-14 00:57:00,39.9,37.5,30.15,West,270,0.0,-999.0,91,-99.99,,,0.00,Acu-Link.com,2013-02-14 08:57:00,
2013-02-14 01:15:00,39.9,37.5,30.14,West,270,0.0,-999.0,91,-99.99,,,0.00,Acu-Link.com,2013-02-14 09:15:00,
2013-02-14 01:30:00,39.6,37.2,30.14,WNW,292,1.1,-999.0,91,-99.99,,,0.00,Acu-Link.com,2013-02-14 09:30:00,
2013-02-14 01:46:00,39.6,37.5,30.15,West,270,1.7,-999.0,92,-99.99,,,0.00,Acu-Link.com,2013-02-14 09:46:00,
2013-02-14 02:01:00,39.6,37.5,30.15,West,270,1.7,-999.0,92,-99.99,,,0.00,Acu-Link.com,2013-02-14 10:01:00,
2013-02-14 02:16:00,39.7,37.8,30.15,SW,225,1.7,-999.0,93,-99.99,,,0.00,Acu-Link.com,2013-02-14 10:16:00,
2013-02-14 02:31:00,39.6,37.7,30.15,NW,315,0.0,-999.0,93,-99.99,,,0.00,Acu-Link.com,2013-02-14 10:31:00,
2013-02-14 02:46:00,39.7,37.8,30.15,West,270,2.2,-999.0,93,-99.99,,,0.00,Acu-Link.com,2013-02-14 10:46:00,
2013-02-14 03:01:00,39.6,37.7,30.14,SW,225,3.2,-999.0,93,-99.99,,,0.00,Acu-Link.com,2013-02-14 11:01:00,
2013-02-14 03:16:00,39.7,37.8,30.14,NNW,337,1.7,-999.0,93,-99.99,,,0.00,Acu-Link.com,2013-02-14 11:16:00,
2013-02-14 03:32:00,39.9,38.3,30.14,NNE,22,0.0,-999.0,94,-99.99,,,0.00,Acu-Link.com,2013-02-14 11:32:00,
2013-02-14 03:47:00,39.7,38.1,30.13,West,270,1.1,-999.0,94,-99.99,,,0.00,Acu-Link.com,2013-02-14 11:47:00,
2013-02-14 04:02:00,39.6,38.0,30.13,WSW,247,2.2,-999.0,94,-99.99,,,0.00,Acu-Link.com,2013-02-14 12:02:00,
2013-02-14 04:17:00,39.6,38.0,30.14,NNW,337,1.7,-999.0,94,-99.99,,,0.00,Acu-Link.com,2013-02-14 12:17:00,
2013-02-14 04:32:00,39.6,38.0,30.14,NW,315,0.0,-999.0,94,-99.99,,,0.00,Acu-Link.com,2013-02-14 12:32:00,
2013-02-14 04:47:00,39.6,38.0,30.14,NE,45,0.0,-999.0,94,-99.99,,,0.00,Acu-Link.com,2013-02-14 12:47:00,
2013-02-14 05:02:00,39.4,37.8,30.14,WNW,292,0.0,-999.0,94,-99.99,,,0.00,Acu-Link.com,2013-02-14 13:02:00,
2013-02-14 05:17:00,39.4,37.8,30.14,North,0,0.0,-999.0,94,-99.99,,,0.00,Acu-Link.com,2013-02-14 13:17:00,
2013-02-14 05:32:00,39.6,38.0,30.14,West,270,1.1,-999.0,94,-99.99,,,0.00,Acu-Link.com,2013-02-14 13:32:00,
2013-02-14 05:48:00,39.6,38.0,30.13,SW,225,0.0,-999.0,94,-99.99,,,0.00,Acu-Link.com,2013-02-14 13:48:00,
2013-02-14 06:03:00,39.4,37.8,30.14,North,0,0.0,-999.0,94,-99.99,,,0.00,Acu-Link.com,2013-02-14 14:03:00,
2013-02-14 06:18:00,39.2,37.6,30.14,NNE,22,0.0,-999.0,94,-99.99,,,0.00,Acu-Link.com,2013-02-14 14:18:00,
2013-02-14 06:33:00,39.2,37.9,30.14,NW,315,1.7,-999.0,95,-99.99,,,0.00,Acu-Link.com,2013-02-14 14:33:00,
2013-02-14 06:48:00,39.2,37.9,30.14,East,90,2.2,-999.0,95,-99.99,,,0.00,Acu-Link.com,2013-02-14 14:48:00,
2013-02-14 07:03:00,39.6,38.3,30.14,East,90,1.7,-999.0,95,-99.99,,,0.00,Acu-Link.com,2013-02-14 15:03:00,
2013-02-14 07:18:00,39.6,38.3,30.15,ENE,67,0.0,-999.0,95,-99.99,,,0.00,Acu-Link.com,2013-02-14 15:18:00,
2013-02-14 07:33:00,40.8,39.5,30.16,SW,225,2.2,-999.0,95,-99.99,,,0.00,Acu-Link.com,2013-02-14 15:33:00,
2013-02-14 07:48:00,42.8,41.5,30.15,SSW,202,0.0,-999.0,95,-99.99,,,0.00,Acu-Link.com,2013-02-14 15:48:00,
2013-02-14 08:03:00,46.4,44.2,30.16,West,270,0.0,-999.0,92,-99.99,,,0.00,Acu-Link.com,2013-02-14 16:03:00,
2013-02-14 08:19:00,47.8,44.7,30.16,SE,135,2.2,-999.0,89,-99.99,,,0.00,Acu-Link.com,2013-02-14 16:19:00,
2013-02-14 08:34:00,50.5,45.2,30.16,SSW,202,1.7,-999.0,82,-99.99,,,0.00,Acu-Link.com,2013-02-14 16:34:00,
2013-02-14 08:49:00,55.4,47.3,30.17,SE,135,0.0,-999.0,74,-99.99,,,0.00,Acu-Link.com,2013-02-14 16:49:00,
2013-02-14 09:04:00,59.0,48.1,30.16,ESE,112,0.0,-999.0,67,-99.99,,,0.00,Acu-Link.com,2013-02-14 17:04:00,
2013-02-14 09:19:00,62.4,45.0,30.16,ESE,112,3.2,-999.0,53,-99.99,,,0.00,Acu-Link.com,2013-02-14 17:19:00,
2013-02-14 09:34:00,63.3,44.3,30.16,East,90,2.2,-999.0,50,-99.99,,,0.00,Acu-Link.com,2013-02-14 17:34:00,
2013-02-14 09:49:00,63.9,43.3,30.16,WNW,292,2.2,-999.0,47,-99.99,,,0.00,Acu-Link.com,2013-02-14 17:49:00,
2013-02-14 10:04:00,64.9,43.6,30.15,ESE,112,3.2,-999.0,46,-99.99,,,0.00,Acu-Link.com,2013-02-14 18:04:00,
2013-02-14 10:19:00,66.2,43.0,30.15,ESE,112,3.7,-999.0,43,-99.99,,,0.00,Acu-Link.com,2013-02-14 18:19:00,
2013-02-14 10:35:00,66.7,42.9,30.15,South,180,4.2,-999.0,42,-99.99,,,0.00,Acu-Link.com,2013-02-14 18:35:00,
2013-02-14 10:50:00,66.9,41.8,30.15,SSE,157,2.7,-999.0,40,-99.99,,,0.00,Acu-Link.com,2013-02-14 18:50:00,
2013-02-14 11:05:00,67.6,42.4,30.15,ESE,112,4.7,-999.0,40,-99.99,,,0.00,Acu-Link.com,2013-02-14 19:05:00,
2013-02-14 11:20:00,69.1,43.1,30.14,East,90,2.7,-999.0,39,-99.99,,,0.00,Acu-Link.com,2013-02-14 19:20:00,
2013-02-14 11:35:00,69.8,43.0,30.14,East,90,3.7,-999.0,38,-99.99,,,0.00,Acu-Link.com,2013-02-14 19:35:00,
2013-02-14 11:50:00,68.9,41.5,30.14,West,270,1.7,-999.0,37,-99.99,,,0.00,Acu-Link.com,2013-02-14 19:50:00,
2013-02-14 12:05:00,70.2,42.7,30.13,SSW,202,2.2,-999.0,37,-99.99,,,0.00,Acu-Link.com,2013-02-14 20:05:00,
2013-02-14 12:20:00,70.2,42.7,30.13,ESE,112,4.7,-999.0,37,-99.99,,,0.00,Acu-Link.com,2013-02-14 20:20:00,
2013-02-14 12:35:00,70.5,43.7,30.12,East,90,2.2,-999.0,38,-99.99,,,0.00,Acu-Link.com,2013-02-14 20:35:00,
2013-02-14 12:51:00,70.3,42.8,30.12,ESE,112,4.7,-999.0,37,-99.99,,,0.00,Acu-Link.com,2013-02-14 20:51:00,
2013-02-14 13:06:00,70.9,43.3,30.10,ESE,112,6.3,-999.0,37,-99.99,,,0.00,Acu-Link.com,2013-02-14 21:06:00,
2013-02-14 13:21:00,71.2,42.9,30.10,NNE,22,4.7,-999.0,36,-99.99,,,0.00,Acu-Link.com,2013-02-14 21:21:00,
2013-02-14 13:36:00,71.4,43.0,30.10,West,270,2.2,-999.0,36,-99.99,,,0.00,Acu-Link.com,2013-02-14 21:36:00,
2013-02-14 13:51:00,72.3,43.1,30.09,SSE,157,4.2,-999.0,35,-99.99,,,0.00,Acu-Link.com,2013-02-14 21:51:00,
2013-02-14 14:06:00,73.0,43.7,30.08,ESE,112,4.7,-999.0,35,-99.99,,,0.00,Acu-Link.com,2013-02-14 22:06:00,
2013-02-14 14:21:00,72.5,43.3,30.08,SW,225,1.7,-999.0,35,-99.99,,,0.00,Acu-Link.com,2013-02-14 22:21:00,
2013-02-14 14:36:00,73.0,43.7,30.08,ESE,112,3.7,-999.0,35,-99.99,,,0.00,Acu-Link.com,2013-02-14 22:36:00,
2013-02-14 14:51:00,73.6,45.0,30.08,NE,45,3.7,-999.0,36,-99.99,,,0.00,Acu-Link.com,2013-02-14 22:51:00,
2013-02-14 15:07:00,73.4,44.1,30.08,ESE,112,4.7,-999.0,35,-99.99,,,0.00,Acu-Link.com,2013-02-14 23:07:00,
2013-02-14 15:22:00,73.6,44.2,30.07,North,0,1.1,-999.0,35,-99.99,,,0.00,Acu-Link.com,2013-02-14 23:22:00,
2013-02-14 15:37:00,71.8,43.4,30.07,SE,135,2.7,-999.0,36,-99.99,,,0.00,Acu-Link.com,2013-02-14 23:37:00,
2013-02-14 15:52:00,72.3,43.8,30.06,NNE,22,3.7,-999.0,36,-99.99,,,0.00,Acu-Link.com,2013-02-14 23:52:00,
2013-02-14 16:07:00,71.4,43.8,30.07,ESE,112,3.2,-999.0,37,-99.99,,,0.00,Acu-Link.com,2013-02-15 00:07:00,
2013-02-14 16:22:00,73.0,43.7,30.06,SSE,157,1.7,-999.0,35,-99.99,,,0.00,Acu-Link.com,2013-02-15 00:22:00,
2013-02-14 16:37:00,71.2,44.3,30.06,ESE,112,1.1,-999.0,38,-99.99,,,0.00,Acu-Link.com,2013-02-15 00:37:00,
2013-02-14 16:52:00,71.4,44.5,30.06,ESE,112,0.0,-999.0,38,-99.99,,,0.00,Acu-Link.com,2013-02-15 00:52:00,
2013-02-14 17:07:00,70.0,47.1,30.06,West,270,0.0,-999.0,44,-99.99,,,0.00,Acu-Link.com,2013-02-15 01:07:00,
2013-02-14 17:23:00,68.5,46.3,30.07,WSW,247,0.0,-999.0,45,-99.99,,,0.00,Acu-Link.com,2013-02-15 01:23:00,
2013-02-14 17:38:00,64.9,46.8,30.07,West,270,0.0,-999.0,52,-99.99,,,0.00,Acu-Link.com,2013-02-15 01:38:00,
2013-02-14 17:53:00,62.1,45.7,30.07,WSW,247,0.0,-999.0,55,-99.99,,,0.00,Acu-Link.com,2013-02-15 01:53:00,
2013-02-14 18:08:00,59.4,45.1,30.07,WNW,292,0.0,-999.0,59,-99.99,,,0.00,Acu-Link.com,2013-02-15 02:08:00,
2013-02-14 18:23:00,57.2,44.3,30.08,SW,225,0.0,-999.0,62,-99.99,,,0.00,Acu-Link.com,2013-02-15 02:23:00,
2013-02-14 18:38:00,55.8,44.2,30.09,WSW,247,0.0,-999.0,65,-99.99,,,0.00,Acu-Link.com,2013-02-15 02:38:00,
2013-02-14 18:53:00,54.5,43.4,30.08,SW,225,0.0,-999.0,66,-99.99,,,0.00,Acu-Link.com,2013-02-15 02:53:00,
2013-02-14 19:08:00,53.4,43.1,30.09,WSW,247,0.0,-999.0,68,-99.99,,,0.00,Acu-Link.com,2013-02-15 03:08:00,
2013-02-14 19:24:00,52.9,43.0,30.09,West,270,0.0,-999.0,69,-99.99,,,0.00,Acu-Link.com,2013-02-15 03:24:00,
2013-02-14 19:39:00,52.2,42.7,30.08,West,270,0.0,-999.0,70,-99.99,,,0.00,Acu-Link.com,2013-02-15 03:39:00,
2013-02-14 19:54:00,51.4,42.7,30.09,SW,225,0.0,-999.0,72,-99.99,,,0.00,Acu-Link.com,2013-02-15 03:54:00,
2013-02-14 20:09:00,50.9,42.6,30.09,WNW,292,0.0,-999.0,73,-99.99,,,0.00,Acu-Link.com,2013-02-15 04:09:00,
2013-02-14 20:24:00,50.5,42.2,30.09,WSW,247,0.0,-999.0,73,-99.99,,,0.00,Acu-Link.com,2013-02-15 04:24:00,
2013-02-14 20:39:00,49.8,41.9,30.10,West,270,0.0,-999.0,74,-99.99,,,0.00,Acu-Link.com,2013-02-15 04:39:00,
2013-02-14 20:54:00,49.5,41.9,30.09,WSW,247,2.7,-999.0,75,-99.99,,,0.00,Acu-Link.com,2013-02-15 04:54:00,
2013-02-14 21:09:00,49.5,41.9,30.11,WSW,247,0.0,-999.0,75,-99.99,,,0.00,Acu-Link.com,2013-02-15 05:09:00,
2013-02-14 21:25:00,48.9,41.7,30.10,SW,225,0.0,-999.0,76,-99.99,,,0.00,Acu-Link.com,2013-02-15 05:25:00,
2013-02-14 21:40:00,49.6,42.4,30.10,West,270,2.2,-999.0,76,-99.99,,,0.00,Acu-Link.com,2013-02-15 05:40:00,
2013-02-14 21:55:00,51.3,42.9,30.10,NNW,337,3.7,-999.0,73,-99.99,,,0.00,Acu-Link.com,2013-02-15 05:55:00,
2013-02-14 22:10:00,51.1,42.4,30.11,WSW,247,2.7,-999.0,72,-99.99,,,0.00,Acu-Link.com,2013-02-15 06:10:00,
2013-02-14 22:25:00,51.4,42.7,30.10,NW,315,3.7,-999.0,72,-99.99,,,0.00,Acu-Link.com,2013-02-15 06:25:00,
2013-02-14 22:40:00,50.7,42.4,30.11,WNW,292,3.2,-999.0,73,-99.99,,,0.00,Acu-Link.com,2013-02-15 06:40:00,
2013-02-14 22:55:00,50.5,42.5,30.12,NW,315,1.7,-999.0,74,-99.99,,,0.00,Acu-Link.com,2013-02-15 06:55:00,
2013-02-14 23:10:00,49.8,41.9,30.12,ESE,112,2.2,-999.0,74,-99.99,,,0.00,Acu-Link.com,2013-02-15 07:10:00,
2013-02-14 23:25:00,48.6,41.4,30.11,WSW,247,2.2,-999.0,76,-99.99,,,0.00,Acu-Link.com,2013-02-15 07:25:00,
2013-02-14 23:41:00,48.2,41.7,30.11,WSW,247,0.0,-999.0,78,-99.99,,,0.00,Acu-Link.com,2013-02-15 07:41:00,
2013-02-14 23:56:00,47.8,41.3,30.11,SW,225,0.0,-999.0,78,-99.99,,,0.00,Acu-Link.com,2013-02-15 07:56:00,